Rebate Center: Chimney Style Height: < 18" Not Approved for Outdoor Use Range Hoods

Sort:

  • Mail In Rebates
  • Instant Savings
  • Free Delivery
  • Product Reviews
  • Top Ratings
  • Quick Ship

Displaying 1 - 20 of 24 Products 20 40 products per page  

1

2

GE JVW53

Wall Mount Chimney Hood with 350 CFM Blower, Recirculating Option, 2-Level Halogen Lighting, Dishwasher-Safe Grease Filters and Optional Remote Control

JVW5301EJES 30" Slate 07/20/2016 - 12/31/2016 Save Up to $2,000 Download
JVW5301SJSS 30" Stainless Steel 07/20/2016 - 12/31/2016 Save Up to $2,000 Download
JVW5361EJES 36" Slate 07/20/2016 - 12/31/2016 Save Up to $2,000 Download
JVW5361SJSS 36" Stainless Steel 07/20/2016 - 12/31/2016 Save Up to $2,000 Download
Viking RVCH336X

36 Inch Wall Mount Chimney Range Hood with 460 CFM Internal Blower, Heat Sensor, Halogen Lights, Adjustable Duct Cover and Convertible To Recirculating

RVCH336SS Stainless Steel 07/01/2015 - 12/31/2016 Save Up To $875 Instantly Download
RVCH336BK Black 07/01/2015 - 12/31/2016 Save Up To $875 Instantly Download
RVCH336WH White 07/01/2015 - 12/31/2016 Save Up To $875 Instantly Download
Viking RVCH330X

30 Inch Wall Mount Chimney Range Hood with 460 CFM Internal Blower, Heat Sensor, Halogen Lights, Adjustable Duct Cover and Convertible To Recirculating

RVCH330SS Stainless Steel 07/01/2015 - 12/31/2016 Save Up To $875 Instantly Download
RVCH330BK Black 07/01/2015 - 12/31/2016 Save Up To $875 Instantly Download
RVCH330WH White 07/01/2015 - 12/31/2016 Save Up To $875 Instantly Download
BlueStar Pyramid Series BSPYRAMID

Wall Mount Hood with 3-Speed Blower Options, Stainless Steel Construction, 750 Color Options, Hidden Controls, Dishwasher-Safe Filters, Dimming Halogen Lamps and Reversible Top/Rear Exhaust

BSPC30240TS 30" Width 01/01/2016 - 12/31/2016 Save $500 Download
BSPC36240TS 36" Width 01/01/2016 - 12/31/2016 Save $500 Download
BSPC42240TS 42" Width 01/01/2016 - 12/31/2016 Save $500 Download
BSPC48240TS 48" Width 01/01/2016 - 12/31/2016 Save $500 Download
BSPC54240TS 54" Width 01/01/2016 - 12/31/2016 Save $500 Download
BSPC60240TS 60" Width 01/01/2016 - 12/31/2016 Save $500 Download
BSPC66240TS 66" Width 01/01/2016 - 12/31/2016 Save $500 Download
Wolf VW30SX

Wall Mount Chimney Range Hood with Optional Blowers, 3-Speed + Boost, Delay-Off, Filter Clean Indicator, Aluminum Mesh Filters and Front-Mounted Controls

VW30S 30 Inch Width 07/01/2016 - 03/31/2017 Receive a $1,000 Rebate or Free Wolf Gourmet Products Download
VW36S 36 Inch Width 07/01/2016 - 03/31/2017 Receive a $1,000 Rebate or Free Wolf Gourmet Products Download
GE Profile PVW73

Wall Mount Glass Chimney Hood with 350 CFM Blower, Recirculating Option, 2-Level Halogen Lighting, Dishwasher-Safe Grease Filters and Optional Remote Control

PVW7301EJES 30" Slate 07/20/2016 - 12/31/2016 Save Up to $2,000 Download
PVW7301SJSS 30" Stainless Steel 07/20/2016 - 12/31/2016 Save Up to $2,000 Download
PVW7361EJES 36" Slate 07/20/2016 - 12/31/2016 Save Up to $2,000 Download
PVW7361SJSS 36" Stainless Steel 07/20/2016 - 12/31/2016 Save Up to $2,000 Download
Monogram ZV900SLSS

36 Inch Wall Mount Chimney Range Hood with 570 CFM Internal Blower, 4-Speed Fan, Halogen Lamps, LCD Display, Glass Canopy and Convertible to Recirculation

ZV900SLSS   01/01/2016 - 12/31/2016 Save Up To $3,798 Download
BlueStar Manhattan Series BSMNHTTNISS

Island Hood with 3-Speed Blower Options, 750 Color Options, Hidden Controls, Dishwasher Safe Baffle Filters, Halogen Lamps and Top Discharge

BSMANHI24SS 24" Width 01/01/2016 - 12/31/2016 Save $500 Download
BSMANHI30SS 30" Width 01/01/2016 - 12/31/2016 Save $500 Download
BSMANHI36SS 36" Width 01/01/2016 - 12/31/2016 Save $500 Download
BSMANHI42SS 42" Width 01/01/2016 - 12/31/2016 Save $500 Download
BSMANHI48SS 48" Width 01/01/2016 - 12/31/2016 Save $500 Download
BSMANHI54SS 54" Width 01/01/2016 - 12/31/2016 Save $500 Download
BSMANHI60SS 60" Width 01/01/2016 - 12/31/2016 Save $500 Download
BSMANHI66SS 66" Width 01/01/2016 - 12/31/2016 Save $500 Download
BlueStar Manhattan Series BSMNHTTNIBB

Brushed Brass Island Hood with 3-Speed Blower Options, Hidden Controls, Baffle Filters, Halogen Lamps and Top Discharge

BSMANHI24BB 24" Width 01/01/2016 - 12/31/2016 Save $500 Download
BSMANHI30BB 30" Width 01/01/2016 - 12/31/2016 Save $500 Download
BSMANHI36BB 36" Width 01/01/2016 - 12/31/2016 Save $500 Download
BSMANHI42BB 42" Width 01/01/2016 - 12/31/2016 Save $500 Download
BSMANHI48BB 48" Width 01/01/2016 - 12/31/2016 Save $500 Download
BSMANHI54BB 54" Width 01/01/2016 - 12/31/2016 Save $500 Download
BSMANHI60BB 60" Width 01/01/2016 - 12/31/2016 Save $500 Download
BSMANHI66BB 66" Width 01/01/2016 - 12/31/2016 Save $500 Download
Prizer Hoods Manhattan Series MANHI

Island Chimney Range Hood with Optional Blowers, 3-Speed Fan Control, High-Heat Sensor, Halogen Lights, Handcrafted 16 Gauge Material and Baffle Filters

MANHI24SS 24" Width, Brushed Stainless Steel 01/01/2016 - 12/31/2016 Save $500 Download
MANHI30SS 30" Width, Brushed Stainless Steel 01/01/2016 - 12/31/2016 Save $500 Download
MANHI36SS 36" Width, Brushed Stainless Steel 01/01/2016 - 12/31/2016 Save $500 Download
MANHI42SS 42" Width, Brushed Stainless Steel 01/01/2016 - 12/31/2016 Save $500 Download
MANHI48SS 48" Width, Brushed Stainless Steel 01/01/2016 - 12/31/2016 Save $500 Download
MANHI54SS 54" Width, Brushed Stainless Steel 01/01/2016 - 12/31/2016 Save $500 Download
MANHI60SS 60" Width, Brushed Stainless Steel 01/01/2016 - 12/31/2016 Save $500 Download
MANHI66SS 66" Width, Brushed Stainless Steel 01/01/2016 - 12/31/2016 Save $500 Download
Prizer Hoods Manhattan Series MANH

Wall Mount Chimney Range Hood with Optional Blowers, 3-Speed Fan Control, High-Heat Sensor, Halogen Lights, Handcrafted 16 Gauge Material and Baffle Filters

MANH24SS 24" Width, Brushed Stainless Steel 01/01/2016 - 12/31/2016 Save $500 Download
MANH30SS 30" Width, Brushed Stainless Steel 01/01/2016 - 12/31/2016 Save $500 Download
MANH36SS 36" Width, Brushed Stainless Steel 01/01/2016 - 12/31/2016 Save $500 Download
MANH42SS 42" Width, Brushed Stainless Steel 01/01/2016 - 12/31/2016 Save $500 Download
MANH48SS 48" Width, Brushed Stainless Steel 01/01/2016 - 12/31/2016 Save $500 Download
MANH54SS 54" Width, Brushed Stainless Steel 01/01/2016 - 12/31/2016 Save $500 Download
MANH60SS 60" Width, Brushed Stainless Steel 01/01/2016 - 12/31/2016 Save $500 Download
MANH66SS 66" Width, Brushed Stainless Steel 01/01/2016 - 12/31/2016 Save $500 Download
BlueStar Manhattan Series BSMNHTTNIBC

Brushed Copper Island Hood with 3-Speed Blower Options, Hidden Controls, Baffle Filters, Halogen Lamps and Top Discharge

BSMANHI24BC 24" Width 01/01/2016 - 12/31/2016 Save $500 Download
BSMANHI30BC 30" Width 01/01/2016 - 12/31/2016 Save $500 Download
BSMANHI36BC 36" Width 01/01/2016 - 12/31/2016 Save $500 Download
BSMANHI42BC 42" Width 01/01/2016 - 12/31/2016 Save $500 Download
BSMANHI48BC 48" Width 01/01/2016 - 12/31/2016 Save $500 Download
BSMANHI54BC 54" Width 01/01/2016 - 12/31/2016 Save $500 Download
BSMANHI60BC 60" Width 01/01/2016 - 12/31/2016 Save $500 Download
BSMANHI66BC 66" Width 01/01/2016 - 12/31/2016 Save $500 Download
Smeg KT90U

36 Inch Wall Mount Chimney Range Hood With 600 CFM Internal Blower, 4 Fan Speeds, 2 Halogen Lights, Dishwasher Safe Stainless Steel Grease Filters and Convertible to Recirculating

KT90BU Black 07/01/2016 - 12/31/2016 Save up to $1,699 Download
KT90PU Cream 07/01/2016 - 12/31/2016 Save up to $1,699 Download
KT90XU Stainless Steel 07/01/2016 - 12/31/2016 Save up to $1,699 Download
Monogram ZV850SP

36 Inch Island Mount Chimney Range Hood with Internal Blower, 4-Speed Fan, Halogen Lamps, Push Button Controls and Recirculating Kit Included

ZV850SPSS 360 CFM 01/01/2016 - 12/31/2016 Save Up To $3,798 Download
Monogram ZV1050SFSS

42 Inch Island Chimney Range Hood with 1,080 CFM Internal Dual Blowers, 4-Speed Fan, 6-Level Halogen Lamps, Electronic Touch Controls and Utensil Rod

ZV1050SFSS   01/01/2016 - 12/31/2016 Save Up To $3,798 Download
BlueStar Manhattan Series BSMNHTTNBC

Brushed Copper Wall Mount Hood with 3-Speed Blower Options, Hidden Controls, Baffle Filters, Halogen Lamps and Top Discharge

BSMANH24BC 24" Width 01/01/2016 - 12/31/2016 Save $500 Download
BSMANH30BC 30" Width 01/01/2016 - 12/31/2016 Save $500 Download
BSMANH36BC 36" Width 01/01/2016 - 12/31/2016 Save $500 Download
BSMANH42BC 42" Width 01/01/2016 - 12/31/2016 Save $500 Download
BSMANH48BC 48" Width 01/01/2016 - 12/31/2016 Save $500 Download
BSMANH54BC 54" Width 01/01/2016 - 12/31/2016 Save $500 Download
BSMANH60BC 60" Width 01/01/2016 - 12/31/2016 Save $500 Download
BSMANH66BC 66" Width 01/01/2016 - 12/31/2016 Save $500 Download
BlueStar Manhattan Series BSMNHTTNSS

Wall Mount Hood with 3-Speed Blower Options, 750 Color Options, Hidden Controls, Dishwasher Safe Baffle Filters, Halogen Lamps and Top Discharge

BSMANH24SS 24" Width 01/01/2016 - 12/31/2016 Save $500 Download
BSMANH30SS 30" Width 01/01/2016 - 12/31/2016 Save $500 Download
BSMANH36SS 36" Width 01/01/2016 - 12/31/2016 Save $500 Download
BSMANH42SS 42" Width 01/01/2016 - 12/31/2016 Save $500 Download
BSMANH48SS 48" Width 01/01/2016 - 12/31/2016 Save $500 Download
BSMANH54SS 54" Width 01/01/2016 - 12/31/2016 Save $500 Download
BSMANH60SS 60" Width 01/01/2016 - 12/31/2016 Save $500 Download
BSMANH66SS 66" Width 01/01/2016 - 12/31/2016 Save $500 Download
BlueStar Manhattan Series BSMNHTTNBB

Brushed Brass Wall Mount Hood with 3-Speed Blower Options, Hidden Controls, Baffle Filters, Halogen Lamps and Top Discharge

BSMANH24BB 24" Width 01/01/2016 - 12/31/2016 Save $500 Download
BSMANH30BB 30" Width 01/01/2016 - 12/31/2016 Save $500 Download
BSMANH36BB 36" Width 01/01/2016 - 12/31/2016 Save $500 Download
BSMANH42BB 42" Width 01/01/2016 - 12/31/2016 Save $500 Download
BSMANH48BB 48" Width 01/01/2016 - 12/31/2016 Save $500 Download
BSMANH54BB 54" Width 01/01/2016 - 12/31/2016 Save $500 Download
BSMANH60BB 60" Width 01/01/2016 - 12/31/2016 Save $500 Download
BSMANH66BB 66" Width 01/01/2016 - 12/31/2016 Save $500 Download
Monogram ZV830SMSS

30 Inch Wall Mount Chimney Range Hood with 500 CFM Internal Blower, Perimeter Filter System, 4-Speed Fan, Halogen Lamps and Convertible to Recirculation

ZV830SMSS   01/01/2016 - 12/31/2016 Save Up To $3,798 Download
Monogram ZV925SLSS

36 Inch Island Chimney Range Hood with 570 CFM Internal Blower, 4-Speed Fan, Touch Controls, LCD Display, Glass Canopy and Convertible to Recirculating

ZV925SLSS   01/01/2016 - 12/31/2016 Save Up To $3,798 Download

Sort:

Displaying 1 - 20 of 24 Products 20 40 products per page  

1

2

Expand Your Results

Remove Category:

Remove Approved for Outdoor Use:

Remove Style:

Remove Height:

Are you a builder
Quick LookQuick Look

© 2016, AJ Madison Inc. or its affiliates